Location: Bühlhof
(48.7849°N, 8.6361°E)
Time: 01:00:25
(UTC+00:00)

Cosmos 1833 Rocket - Pass Details

Date: 19 January 2026
Orbit: 832 x 838 km, 71.0° (Epoch: 18 February)

Event Time Altitude Azimuth Distance (km) Brightness Sun altitude
Rises 17:03:29 0° 173° (S) 3,376 6.0 -9.9°
Reaches altitude 10° 17:06:12 10° 162° (SSE) 2,447 5.1 -10.3°
Maximum altitude 17:10:57 29° 104° (ESE) 1,495 3.6 -11.1°
Enters shadow 17:14:59 13° 51° (NE) 2,230 4.3 -11.7°
